Wind_Speed
28 28 29 30 29 26 24 23 20 18 18 17 16 16 14 13 13 13 14 14 14 13 12 11 10 10 10 10 10 9 8 8 8 9 10 10 9 9 8 8 7 7 7 7 7 8 9 9 9 8 6 5 4 3 3 5 5 4 3 4 3 2 2 2 1 1 3 4 4 4 5 6 7 8 8 8 8 8 9 11 13 14 15 15 15
26 27 27 29 29 27 26 25 22 20 20 21 20 18 17 15 14 15 15 15 15 14 13 11 10 10 10 9 10 10 9 9 9 9 10 10 10 9 9 8 8 8 8 8 9 9 9 9 9 8 7 6 5 5 7 8 8 7 6 6 5 4 4 3 3 3 4 4 4 5 6 7 8 9 10 10 10 10 10 11 13 15 16 16 16
25 25 26 28 30 29 28 27 25 23 24 24 22 20 19 17 16 17 17 16 16 14 13 12 11 10 10 9 11 11 9 9 10 9 10 10 10 10 10 9 9 10 10 11 11 11 10 10 10 9 8 8 9 9 9 9 8 8 7 6 5 4 4 3 2 3 3 4 4 5 7 8 10 11 11 12 12 13 13 13 15 16 17 17 17
24 25 26 28 30 30 30 30 28 26 26 26 24 22 21 19 18 18 18 17 17 15 13 12 11 11 10 10 11 10 9 10 10 10 10 10 10 10 10 10 10 11 12 12 12 13 13 13 12 11 11 10 10 10 9 8 8 7 6 5 4 2 2 1 1 2 3 5 6 7 8 10 11 12 12 13 14 15 15 16 17 18 18 18 18
24 26 28 29 30 30 30 30 29 28 28 26 24 23 22 21 19 19 19 19 17 15 13 12 12 12 10 11 12 10 10 10 10 10 10 10 11 10 10 11 11 11 12 12 13 14 15 15 14 13 13 11 10 9 8 7 7 5 5 4 3 3 3 2 2 2 2 4 6 7 8 10 11 12 13 14 15 16 17 18 18 19 19 19 19
26 28 29 29 31 31 30 29 29 28 28 26 24 24 24 21 19 19 19 19 17 15 13 13 12 11 11 12 12 11 11 10 10 10 10 10 10 9 9 9 10 11 12 13 14 14 15 14 14 13 12 11 9 8 7 6 5 4 4 4 4 5 5 5 4 4 4 4 6 7 8 9 11 12 13 15 16 17 18 19 19 20 20 21 21
29 29 29 30 32 32 31 31 31 30 28 27 27 27 26 24 21 20 18 18 16 15 13 12 11 11 12 14 13 12 11 11 11 11 11 10 9 9 9 9 10 11 11 12 12 13 13 12 11 11 10 9 8 7 6 6 5 5 5 5 6 6 6 6 6 6 7 7 8 8 9 11 12 12 13 15 15 17 18 19 20 21 21 22 23
27 28 29 30 32 34 35 36 36 33 32 31 31 31 29 26 23 21 18 17 16 15 13 12 10 11 14 15 13 13 12 12 13 12 12 11 11 10 9 9 11 11 11 11 10 10 10 9 9 9 8 8 7 7 6 6 6 6 7 7 8 8 9 9 9 10 11 11 12 12 13 14 14 15 16 17 17 17 18 20 20 21 21 23 24
25 27 29 30 32 34 36 37 38 38 37 36 34 32 30 27 24 21 19 18 16 15 13 11 10 14 16 15 14 14 13 14 14 13 13 13 13 12 12 12 13 13 12 11 10 9 9 8 8 8 9 8 8 7 7 8 8 9 9 10 11 12 12 13 13 13 14 15 15 16 17 17 17 18 18 19 19 20 21 22 22 22 22 23 24
26 28 28 29 29 28 30 32 36 39 37 34 32 30 30 28 25 22 21 18 16 15 13 12 13 16 16 16 15 14 14 15 15 15 15 15 15 14 14 14 15 14 13 12 11 10 10 10 10 10 10 10 10 10 10 11 11 12 13 14 14 15 15 16 16 16 17 18 19 20 21 20 20 21 21 22 22 22 22 24 25 26 26 25 25
26 26 25 25 24 24 25 30 36 39 35 31 29 29 28 27 25 24 22 19 16 15 14 13 15 18 18 17 16 15 15 16 16 16 16 16 16 16 16 16 17 16 16 14 14 14 14 14 14 13 13 13 14 14 14 15 15 16 17 17 18 19 19 19 20 21 22 22 23 24 24 23 23 24 25 24 24 24 24 25 26 27 28 29 29
21 22 24 24 24 25 26 28 33 35 32 29 26 25 24 24 23 23 21 18 17 16 15 15 17 19 19 18 17 16 16 17 17 18 18 18 18 18 17 18 18 19 19 18 18 18 18 18 18 18 17 17 17 18 18 18 19 19 20 21 22 22 22 23 23 24 25 26 26 26 26 25 25 25 27 27 27 27 26 27 27 28 29 29 30
14 20 24 24 23 23 22 22 25 27 27 26 24 23 22 21 21 21 20 18 17 16 16 16 17 18 19 19 18 18 18 18 19 19 20 20 20 20 20 20 20 21 21 21 22 22 22 23 22 22 22 22 22 22 22 22 23 23 24 25 25 26 26 27 27 27 28 28 29 28 27 27 27 27 28 27 27 27 28 28 30 31 31 30 30
12 19 22 20 19 20 20 20 21 23 24 25 24 24 23 22 21 22 21 19 19 18 17 17 17 18 18 18 19 19 20 20 20 20 21 21 22 22 22 23 23 24 24 25 25 26 26 27 27 26 26 26 26 26 26 26 27 28 29 29 30 30 31 31 31 31 31 31 31 30 29 30 30 29 29 28 28 29 30 31 32 33 33 33 33
12 16 17 17 19 19 19 18 19 21 23 25 26 25 25 25 25 25 23 21 21 20 18 18 18 18 18 18 19 20 20 21 21 21 21 22 23 24 24 25 25 26 27 28 29 29 30 30 31 30 29 29 29 29 29 30 31 32 33 33 33 34 34 34 34 34 34 34 34 33 32 32 32 32 31 31 32 33 32 32 33 34 34 35 35
12 14 14 17 19 20 21 18 18 22 24 25 25 25 25 26 27 27 27 25 23 22 20 19 19 18 19 19 19 20 21 22 22 22 22 23 24 24 24 25 26 28 28 29 31 32 33 34 35 34 34 33 32 32 32 32 33 34 35 35 35 35 36 36 36 36 36 36 36 35 35 35 34 34 33 32 33 33 32 32 34 36 35 34 35
10 11 11 13 13 15 18 17 17 22 25 23 22 22 23 26 27 27 28 27 25 23 22 20 19 19 20 20 20 22 23 23 24 24 25 26 26 26 26 26 28 29 29 30 32 33 34 35 36 36 36 34 33 33 34 35 35 36 35 35 35 36 36 37 38 38 37 37 38 38 39 38 37 36 35 34 34 35 34 33 35 37 38 35 34
6 5 6 7 7 9 13 14 15 16 17 18 19 18 21 25 26 26 27 27 26 26 25 24 22 22 23 23 24 25 26 26 27 27 28 28 29 29 28 29 30 31 32 33 34 35 35 35 36 37 36 35 34 34 34 35 35 35 34 34 34 34 35 35 37 38 38 39 40 39 39 39 39 38 37 36 36 37 36 35 34 37 39 36 32
5 3 5 8 9 10 11 13 14 13 13 16 20 21 23 26 27 28 29 29 29 28 28 27 26 26 26 26 26 26 27 28 29 29 30 30 30 31 31 31 32 32 33 34 35 35 36 35 35 36 35 34 33 34 35 35 36 36 35 35 36 36 35 35 37 39 41 42 42 39 36 36 37 37 37 37 37 36 34 33 31 32 35 34 32
5 6 8 10 10 10 11 13 14 14 15 17 21 24 26 28 28 30 31 32 32 31 30 29 28 27 27 26 26 26 27 28 29 29 29 29 30 31 31 32 32 32 33 34 34 35 36 36 35 35 35 35 34 35 36 38 39 40 39 38 39 38 36 36 38 40 40 40 40 38 36 35 35 35 36 37 37 35 33 32 31 31 32 34 33
7 8 9 10 10 11 13 14 15 16 17 19 21 22 23 23 23 24 25 27 28 29 30 30 29 27 25 25 25 25 26 27 28 29 30 30 30 31 32 33 33 34 35 35 35 36 36 37 37 38 38 38 38 38 40 40 40 42 42 40 40 39 37 37 38 40 40 40 39 39 38 36 34 35 35 36 36 36 35 34 33 33 33 34 34
10 10 11 11 12 12 14 15 16 17 18 20 22 22 21 21 20 20 20 21 22 23 25 26 27 27 26 26 26 27 28 28 29 29 30 31 32 33 34 35 36 37 37 37 38 39 39 40 41 41 42 43 43 43 43 43 43 44 44 43 41 41 40 40 40 42 43 42 41 40 39 36 35 35 35 36 36 36 36 35 34 34 34 34 35
12 13 13 14 14 15 17 18 18 19 20 20 21 22 22 22 21 21 21 21 22 23 24 25 26 26 27 27 28 29 30 31 31 32 33 35 36 38 39 40 40 41 42 42 42 43 44 44 45 45 45 46 46 46 46 46 47 47 47 46 45 44 43 42 42 42 42 42 41 42 41 39 37 36 35 35 36 36 36 36 35 34 33 34 35
16 16 17 17 17 18 20 21 21 22 22 22 23 23 24 24 25 25 25 25 26 27 27 28 29 30 31 32 33 34 35 36 37 39 40 41 42 42 43 44 45 45 46 47 47 47 47 48 48 48 48 47 47 47 48 49 49 49 49 48 48 47 46 45 43 42 42 42 42 42 42 40 38 37 36 36 37 37 36 35 34 33 33 33 34
20 20 20 20 21 21 22 22 23 23 23 24 24 25 26 27 27 28 28 29 29 30 31 32 33 34 35 36 37 38 40 41 42 43 44 45 45 45 46 46 48 49 49 50 51 52 52 52 52 52 52 51 51 51 51 51 51 51 51 50 49 49 49 47 45 44 43 42 41 41 42 41 40 40 40 39 38 36 35 34 33 33 32 32 33
20 21 21 21 22 23 24 24 25 25 26 26 27 27 28 29 30 31 31 32 32 33 34 35 36 37 38 39 40 41 42 43 44 45 46 47 48 48 49 50 51 52 53 54 55 56 56 57 57 56 56 55 55 55 55 55 54 54 53 52 52 51 50 49 47 46 44 42 41 41 42 42 43 44 43 40 38 36 34 33 32 32 31 31 31
22 22 23 23 24 24 25 26 26 27 27 28 29 30 31 31 32 33 34 35 36 36 37 38 39 40 41 42 43 44 45 46 46 47 48 50 50 51 52 52 53 54 55 55 56 57 57 57 57 57 57 56 55 55 54 54 54 54 53 52 51 50 49 49 48 46 45 43 42 42 42 43 46 47 45 41 39 36 33 32 31 30 30 31 32
23 24 24 25 25 26 26 27 28 28 29 30 31 32 33 34 35 37 38 39 40 40 41 42 43 44 45 45 46 47 47 46 46 47 48 49 50 50 50 51 51 51 52 52 53 54 54 54 53 53 53 53 52 52 51 51 50 50 49 49 48 48 47 48 47 46 46 45 44 42 41 41 43 44 41 38 36 34 31 30 30 30 31 32 33
24 25 26 26 27 28 28 29 30 31 32 33 34 35 36 37 38 40 41 41 42 43 44 44 45 45 46 46 46 46 45 44 43 44 44 44 45 45 45 45 46 46 46 47 48 48 48 48 48 47 47 47 47 47 47 46 46 45 45 45 44 44 45 46 46 46 45 44 43 42 41 40 40 39 37 36 33 32 30 30 30 31 31 31 31
26 27 27 28 29 30 31 32 33 34 34 35 36 37 38 39 40 41 41 42 43 43 44 44 44 44 44 44 44 44 43 42 40 40 40 39 39 40 40 40 41 41 40 41 42 43 43 42 42 42 41 41 41 41 41 41 41 41 41 40 40 41 42 43 44 44 44 43 42 41 41 40 38 37 38 36 32 30 30 29 30 30 29 29 30
27 27 28 29 29 30 31 32 33 34 35 35 35 36 37 39 40 40 40 40 41 42 42 41 41 41 40 40 39 38 38 38 38 37 37 37 37 37 37 38 38 39 39 39 39 40 40 40 41 41 40 40 39 39 39 39 40 39 38 37 37 38 38 39 40 40 40 39 39 38 38 38 38 38 38 34 30 29 29 29 29 29 29 29 30
25 25 26 26 27 28 29 29 30 31 32 32 33 33 33 34 35 36 37 36 36 35 35 34 33 33 33 33 33 33 33 34 35 36 36 36 36 36 37 38 38 39 40 41 41 41 42 42 43 43 43 43 42 40 40 39 39 38 37 36 36 35 36 37 37 38 39 39 38 36 35 35 36 36 34 31 30 30 30 29 29 29 29 29 28
21 21 21 21 22 23 24 25 26 27 27 28 28 29 28 27 27 28 30 30 29 28 27 28 28 28 29 29 30 30 31 32 33 34 35 36 37 37 38 38 39 40 41 41 42 42 42 43 43 44 44 45 44 43 42 40 39 38 37 35 34 33 32 32 33 34 36 37 35 33 33 34 34 34 33 32 31 31 29 29 29 28 28 27 25
16 17 17 18 19 20 21 22 22 23 23 23 23 23 23 23 22 21 22 24 25 25 25 25 25 26 26 27 28 29 30 31 32 32 33 33 33 33 33 33 34 34 35 34 35 35 35 35 36 37 39 40 41 41 41 39 38 37 35 33 31 30 27 27 28 30 31 32 32 34 36 37 36 35 35 33 31 30 28 27 27 26 26 25 23
14 15 15 16 16 17 18 18 18 18 19 19 18 18 19 19 19 19 18 19 20 22 23 24 24 23 24 24 25 26 27 27 27 26 26 25 24 24 24 25 25 25 26 26 26 26 26 27 27 29 31 34 36 37 36 35 34 33 31 29 29 27 24 24 26 28 30 33 35 35 34 33 33 33 31 30 29 28 26 25 24 24 24 22 20
12 13 14 13 13 14 14 15 15 14 14 14 15 16 16 16 16 17 17 17 18 18 19 20 21 22 21 20 19 20 20 20 20 20 20 20 20 20 20 20 20 21 21 21 21 22 22 22 23 24 26 28 31 33 32 29 28 28 27 26 26 25 22 21 22 24 26 28 28 26 24 24 27 29 29 28 28 27 26 24 23 22 20 19 18
11 12 11 11 11 11 12 12 12 12 11 12 12 13 14 14 15 15 16 16 16 16 16 16 17 18 18 17 16 16 17 17 18 19 19 19 20 20 20 20 20 19 19 19 19 20 21 22 23 23 24 25 28 30 29 26 24 24 24 25 25 24 22 20 20 21 22 23 25 26 26 26 26 27 28 29 28 27 25 22 20 18 18 17 17
11 10 10 10 10 10 11 12 12 10 9 10 10 11 12 13 13 13 14 13 13 13 13 13 14 15 16 16 17 17 18 19 20 20 19 19 19 19 19 20 20 20 20 19 19 20 21 22 23 23 23 23 25 27 26 24 23 23 24 23 23 22 22 21 20 19 19 21 25 29 30 30 28 27 28 28 27 25 22 20 18 17 16 16 16
10 10 10 10 10 10 10 11 10 9 9 9 9 10 10 11 11 10 10 11 11 12 12 13 13 14 15 16 17 18 19 20 20 20 19 19 19 18 18 19 19 20 20 21 21 22 23 22 21 21 21 21 21 22 22 22 22 24 24 23 22 22 22 20 19 18 20 22 26 30 31 30 29 28 27 26 23 21 19 17 16 15 15 15 14
9 9 10 11 10 10 10 10 10 9 8 9 10 10 9 9 8 8 9 10 11 11 12 13 13 14 15 16 17 18 18 18 18 18 18 18 18 18 18 17 17 18 19 20 21 23 24 23 21 20 19 17 17 18 19 20 21 22 22 22 21 19 18 18 20 22 24 25 27 29 29 28 28 26 24 21 19 17 16 15 14 14 14 13 12
9 9 10 11 10 10 10 10 9 9 8 9 10 10 9 8 8 8 9 10 10 11 12 13 13 14 15 16 16 16 16 16 16 16 16 16 16 17 17 17 16 16 17 18 19 20 20 20 21 21 19 16 14 15 17 17 17 17 17 17 18 18 19 21 23 25 26 26 27 28 28 27 25 22 19 16 14 13 12 12 12 13 12 11 10
9 10 10 10 10 10 10 10 9 9 9 9 10 10 9 9 8 8 9 10 10 11 12 12 13 14 15 15 15 14 14 14 14 15 15 15 15 16 17 16 15 15 16 16 16 16 15 15 16 16 15 12 10 10 12 12 13 15 16 17 20 22 23 24 25 26 26 26 26 26 25 23 21 18 14 12 11 11 11 11 11 11 11 10 9
10 10 10 10 9 9 10 9 8 8 9 10 10 10 10 9 8 9 9 10 10 11 11 12 13 14 14 13 13 13 13 13 14 15 15 15 15 15 16 15 14 13 15 15 14 14 12 11 13 12 8 5 4 5 8 10 11 14 16 19 21 22 23 23 24 24 23 23 23 22 21 19 16 13 11 11 10 10 11 10 10 10 10 10 9
10 10 9 9 9 9 9 8 7 7 9 9 10 10 10 9 9 9 9 10 11 11 11 12 13 14 13 12 12 13 13 14 15 15 15 16 16 16 16 15 13 13 13 13 11 11 9 7 10 11 8 5 4 3 6 9 11 14 17 18 19 20 20 20 20 19 20 20 19 18 17 15 13 11 10 10 10 10 10 10 10 10 10 9 8
11 10 8 8 8 8 8 7 7 7 8 9 9 10 11 11 10 10 10 10 11 12 12 12 13 12 12 11 11 12 13 13 14 15 15 17 17 16 15 14 13 12 12 11 8 7 6 6 8 10 10 10 8 8 8 10 13 16 17 18 18 18 19 19 19 19 19 18 17 16 16 14 12 10 10 10 10 10 10 10 10 10 9 8 7
11 9 7 7 7 7 6 6 6 6 7 8 9 10 10 11 11 10 9 9 10 11 12 11 11 11 11 11 11 12 12 13 13 14 15 16 16 15 14 11 8 7 8 8 6 6 8 10 10 9 8 8 6 5 6 7 9 11 13 15 16 17 18 18 17 17 16 15 15 15 13 11 9 9 9 9 10 9 9 9 9 9 8 7 6
11 8 6 6 6 6 5 4 4 5 6 7 8 9 9 10 9 8 7 7 9 10 10 10 10 9 10 11 11 11 12 13 13 14 15 14 13 12 10 6 3 4 5 6 7 8 10 10 10 9 7 6 4 3 1 2 4 6 8 11 12 13 14 14 13 13 13 13 13 12 11 9 8 8 8 8 8 8 8 8 8 8 8 6 5
10 7 6 5 5 4 3 2 3 4 5 6 8 9 9 9 8 7 7 7 8 8 8 8 8 8 9 10 10 11 12 12 12 12 12 11 11 10 8 5 4 6 7 8 8 8 8 7 7 6 5 5 4 3 2 1 2 3 5 7 8 10 10 11 11 12 12 11 10 10 9 9 9 8 8 7 7 7 7 8 8 7 6 5 4
9 7 6 5 4 3 2 2 2 4 5 7 8 8 9 9 8 8 8 7 7 6 6 6 7 8 8 9 9 9 10 9 8 8 8 9 9 9 8 7 5 6 8 9 8 7 7 6 5 4 4 3 3 3 3 3 3 3 4 6 7 8 9 10 11 11 10 10 10 9 9 9 8 8 7 6 6 6 6 6 6 6 5 3 3
9 7 6 5 4 3 2 2 3 5 6 7 7 8 9 9 8 8 8 7 6 5 5 6 7 8 8 8 7 6 5 4 3 3 5 7 7 7 6 6 6 6 6 7 7 6 5 4 4 3 3 3 3 3 3 3 3 4 4 5 6 7 8 10 10 11 11 10 9 9 8 8 7 6 6 5 5 5 5 5 5 4 3 2 3
9 8 7 6 5 3 2 2 4 5 6 6 6 7 9 9 9 8 8 7 7 6 5 5 6 7 8 6 4 3 2 1 1 2 3 5 6 6 5 5 6 6 6 6 5 4 3 3 2 2 3 3 3 3 3 3 3 3 3 3 4 6 8 9 10 11 11 10 9 8 7 6 5 5 5 5 5 5 5 4 3 2 2 3 4
Wind_Direction
200 203 203 204 205 204 204 209 213 216 218 222 230 237 245 255 269 277 277 276 277 277 274 273 275 273 269 262 250 242 238 234 225 213 203 198 198 199 199 194 187 179 170 161 160 162 160 156 156 156 158 164 170 177 156 135 146 158 125 120 128 123 131 140 138 313 330 338 331 319 317 318 317 316 315 313 311 307 301 295 292 293 295 297 298
198 201 202 203 207 208 209 213 217 219 221 226 231 235 241 250 261 269 269 270 271 270 269 273 278 277 272 259 240 232 230 227 221 208 195 193 196 199 200 193 179 165 157 155 154 153 151 149 149 152 157 161 155 145 140 137 141 139 129 132 145 157 180 200 222 251 279 302 310 308 313 319 319 318 317 315 310 303 297 294 293 294 295 296 297
196 199 199 201 206 211 213 215 219 221 223 228 232 234 240 247 257 265 265 265 268 267 267 274 278 278 274 252 230 225 221 218 215 205 194 192 194 195 192 184 172 160 156 156 154 151 150 147 146 147 150 152 147 143 144 145 144 142 140 142 149 160 183 207 235 261 289 312 318 318 323 327 324 324 324 321 318 312 306 299 296 295 295 296 296
199 201 201 203 208 212 215 217 221 223 224 229 233 236 240 246 255 263 262 261 263 262 266 274 276 278 271 240 222 220 215 210 209 201 193 191 193 193 187 178 172 164 158 156 153 150 149 147 145 145 146 147 147 147 150 152 152 151 151 148 148 162 188 225 284 306 319 324 323 324 328 328 325 325 324 321 319 317 314 308 302 297 295 295 295
208 210 208 209 212 215 219 221 221 222 225 228 232 236 240 245 253 259 258 257 256 255 263 270 273 276 263 229 216 215 209 206 205 196 190 190 190 190 185 178 172 164 159 156 153 149 148 146 145 146 147 148 150 154 160 164 166 169 169 170 177 197 212 222 241 269 294 306 311 316 319 317 316 316 316 314 313 312 311 309 304 298 294 292 292
215 217 216 217 217 216 217 220 220 220 223 226 229 234 239 243 250 254 256 256 254 255 262 266 269 269 247 218 208 206 202 201 199 192 187 188 188 187 186 179 171 165 160 158 155 152 151 150 150 151 154 158 162 169 176 181 187 194 201 208 212 216 220 222 226 239 260 279 293 302 304 303 305 306 306 306 305 304 304 304 302 297 292 289 290
216 219 221 224 225 220 216 216 217 218 221 224 227 233 236 240 245 248 251 254 253 257 262 266 269 255 224 207 200 199 197 196 195 192 189 189 188 187 186 180 171 166 164 162 161 159 158 159 161 166 171 177 182 189 196 202 211 221 230 234 234 237 240 245 252 263 276 284 291 295 295 297 300 302 302 301 300 300 297 296 296 294 290 289 288
217 219 222 226 229 227 220 215 213 215 219 223 228 233 235 238 243 246 247 248 249 253 259 266 261 228 204 199 197 194 196 197 196 195 192 191 190 189 188 182 175 170 169 171 173 173 173 174 179 187 194 200 205 211 218 224 230 239 248 254 258 265 268 270 274 278 284 288 291 292 291 294 298 299 300 300 301 300 296 293 292 290 288 287 287
219 220 221 224 227 229 228 221 215 215 220 225 230 234 235 237 243 245 243 244 245 249 254 256 234 206 195 196 195 193 198 202 201 199 196 194 194 192 189 187 181 178 178 183 187 191 193 194 198 205 213 219 225 230 234 239 245 252 259 263 268 273 276 278 280 282 284 287 289 289 289 291 295 296 297 298 299 300 299 297 294 290 287 286 286
219 220 221 223 224 228 233 228 220 219 222 227 232 234 235 239 242 238 235 238 241 244 248 242 217 201 198 198 197 196 200 203 205 204 200 199 198 195 193 192 190 189 192 196 201 205 210 213 214 218 224 231 237 241 244 247 252 257 262 266 270 274 278 280 281 282 284 287 288 289 289 292 294 295 295 295 295 296 296 297 296 292 289 286 285
222 221 223 224 222 224 227 225 223 223 223 224 227 230 235 238 236 231 231 235 239 240 240 233 214 203 202 202 201 201 203 206 209 209 208 207 206 204 201 200 200 201 203 206 211 216 221 224 227 229 232 236 241 245 249 253 257 261 264 267 270 273 278 281 282 283 285 287 289 290 291 293 294 294 294 294 294 294 294 295 297 296 293 289 287
225 220 219 220 220 221 220 217 217 217 216 217 222 227 230 229 225 225 229 235 239 239 236 230 219 210 208 208 207 208 209 212 214 215 216 216 215 215 214 213 213 213 213 215 218 222 227 230 233 236 238 242 245 248 251 254 258 261 264 267 269 273 277 279 281 282 283 284 286 287 290 293 292 291 292 293 294 293 293 295 296 297 296 293 290
219 212 211 214 219 218 212 207 207 207 208 214 219 219 217 217 218 220 224 231 238 239 234 229 223 217 215 214 215 217 218 219 221 222 224 225 225 226 226 226 226 225 226 227 228 231 234 236 239 241 242 245 248 251 254 257 260 264 266 269 272 274 277 278 279 281 281 282 283 285 288 288 288 289 290 290 291 292 293 295 295 295 295 295 292
216 210 206 205 208 205 198 195 197 199 205 211 213 213 212 213 214 215 218 225 233 235 231 227 224 222 221 222 224 227 228 229 230 231 233 234 236 236 236 237 237 236 236 236 237 238 241 243 245 247 249 252 255 258 262 265 267 269 270 272 275 277 278 278 278 279 280 280 282 283 285 284 284 286 286 285 286 288 289 290 291 291 292 292 291
210 202 201 195 190 189 189 192 195 198 204 210 212 212 213 215 215 215 217 221 226 229 228 224 224 224 224 227 230 235 238 240 240 241 241 243 244 244 246 247 247 247 246 246 245 245 246 247 249 251 253 256 259 262 264 266 267 268 268 270 272 274 275 275 275 276 276 277 279 280 280 280 280 280 279 279 282 284 286 287 287 287 288 288 287
198 192 198 192 190 195 195 194 200 204 207 212 214 214 214 218 221 220 219 220 222 224 223 222 224 226 226 228 232 237 242 244 246 247 248 249 251 251 252 253 255 255 255 255 255 255 254 254 254 254 255 256 258 260 262 263 263 263 264 265 266 268 270 272 272 273 273 274 275 276 276 277 277 275 275 277 280 282 285 287 286 286 285 283 282
196 199 202 188 192 210 208 207 220 219 213 215 220 219 216 218 221 220 218 219 220 220 221 223 226 227 228 230 234 239 243 244 244 245 247 250 252 252 253 254 255 257 257 258 259 260 260 261 261 261 261 260 261 261 261 262 262 262 262 262 263 264 266 268 269 270 271 272 273 274 275 276 275 275 275 278 280 282 284 285 286 285 283 279 278
213 234 246 219 220 233 226 230 243 237 221 219 226 226 218 217 221 221 220 221 221 222 223 226 229 231 231 233 236 239 242 243 243 244 245 248 249 249 251 253 255 256 256 257 258 260 262 263 265 266 267 267 266 264 264 264 265 266 266 266 267 267 268 271 272 273 273 273 273 274 275 274 272 272 274 278 281 284 287 287 287 284 281 277 275
182 204 250 241 235 242 243 242 245 242 234 232 237 234 226 223 224 225 226 228 229 229 229 229 230 231 231 233 235 238 242 245 247 248 249 249 249 249 251 253 254 255 255 256 258 259 261 262 262 263 264 264 263 263 264 266 268 269 270 271 273 273 274 276 277 277 277 276 275 277 278 275 271 270 273 277 281 286 289 289 288 285 281 278 275
191 202 219 221 221 231 244 248 248 247 244 246 248 244 234 231 230 228 228 228 229 230 231 231 232 233 233 236 239 242 245 249 253 255 255 255 254 255 256 258 259 259 259 258 257 257 258 259 260 262 262 262 261 262 264 267 269 272 273 274 276 277 276 275 276 278 279 277 277 278 278 276 273 273 276 279 282 285 287 287 286 284 281 279 278
242 238 236 236 232 231 235 239 244 247 246 249 256 256 251 248 245 241 237 233 232 233 232 232 233 234 234 237 240 244 247 249 252 255 257 258 258 259 261 262 263 263 262 261 260 259 259 260 262 264 266 267 266 266 266 267 269 271 272 274 275 276 275 274 275 278 278 278 279 280 279 278 277 276 277 280 282 283 284 284 282 280 278 277 276
250 248 246 248 248 247 247 248 251 254 255 256 260 264 266 265 264 261 258 254 252 250 246 243 241 239 239 240 242 245 248 249 251 253 255 258 260 262 263 263 263 263 262 262 263 264 264 265 265 265 266 267 268 269 269 270 270 271 273 274 274 275 276 275 276 276 277 278 279 279 278 279 278 276 277 278 280 281 282 282 281 278 275 274 273
253 253 252 253 254 256 259 262 263 263 263 263 264 268 271 272 273 272 270 268 267 265 262 260 257 254 252 252 252 252 252 252 254 255 258 261 263 263 264 264 264 265 265 265 265 265 265 265 265 265 265 266 267 268 269 270 271 272 274 276 276 277 278 278 278 278 279 280 279 278 278 278 277 276 276 277 277 278 279 280 279 276 273 272 271
265 266 266 265 265 265 265 266 266 265 264 265 266 268 270 271 272 272 272 271 270 268 267 265 263 262 261 260 260 260 259 260 261 263 265 266 267 267 267 268 268 269 269 270 270 269 269 268 268 268 268 268 268 269 269 270 272 273 274 275 277 277 278 278 278 279 279 280 280 280 279 278 277 276 276 276 277 278 279 277 275 272 270 269 269
265 267 268 268 269 270 270 271 271 271 271 271 271 271 272 272 273 274 274 273 272 270 269 268 267 266 265 264 265 265 265 266 267 268 269 270 270 271 271 271 272 273 273 274 275 275 275 275 275 275 274 274 273 273 274 274 275 275 276 275 276 276 277 277 277 276 277 278 279 280 279 278 276 276 275 275 276 277 277 274 270 267 266 267 268
266 267 268 268 268 269 271 272 273 274 274 275 275 274 274 274 275 275 274 274 274 273 272 272 271 270 269 269 269 269 269 270 270 271 272 272 272 272 273 273 274 274 275 276 276 277 278 278 278 278 277 277 276 276 276 276 276 276 276 276 276 276 276 276 275 275 275 275 275 276 276 276 276 274 273 273 273 273 272 268 265 263 264 265 266
276 275 274 273 272 272 271 272 272 273 274 275 275 275 275 275 275 275 274 274 274 274 274 274 273 273 273 273 273 273 274 274 274 275 275 275 276 276 276 276 277 277 277 278 278 278 278 279 279 279 279 279 278 277 276 276 275 275 274 274 274 274 273 272 272 272 272 272 272 273 274 276 276 273 269 269 269 267 264 261 260 260 261 263 265
278 277 277 276 276 276 275 275 275 275 275 275 275 276 276 276 276 276 276 276 277 277 277 277 277 276 276 277 277 278 279 280 280 280 280 280 280 280 280 281 280 280 280 280 280 280 280 280 280 280 280 280 279 278 278 276 275 274 272 271 270 268 267 268 268 268 269 270 271 272 273 275 276 270 261 258 260 259 256 255 257 259 262 265 268
279 278 278 278 278 277 277 276 276 275 275 275 275 275 274 274 275 275 275 276 276 277 278 278 279 279 279 280 280 281 282 283 284 284 284 284 284 284 283 283 283 283 282 282 282 282 282 281 281 280 279 279 278 277 277 276 275 273 271 269 267 264 263 263 263 264 265 265 267 268 267 271 274 266 251 244 246 249 250 253 256 260 264 267 271
278 278 278 278 278 278 277 276 275 275 275 275 276 276 275 274 275 275 276 276 277 277 278 279 280 280 281 282 283 283 284 285 285 284 284 284 283 283 283 282 282 282 281 281 281 282 282 281 281 280 279 278 276 276 275 274 273 272 270 269 267 264 262 261 260 261 261 261 263 263 263 266 267 256 241 235 238 244 249 252 255 260 264 267 272
274 275 276 276 277 277 277 277 276 276 276 276 277 278 278 277 276 276 277 277 277 278 278 279 281 282 282 283 284 285 286 286 286 285 284 283 283 282 282 282 282 281 281 280 280 280 280 279 280 279 279 278 276 275 274 273 272 270 268 267 265 264 263 262 261 260 260 259 260 260 261 263 258 245 234 233 239 245 249 251 253 257 261 267 275
272 274 275 276 277 278 279 279 279 279 279 279 278 278 279 280 279 279 278 278 278 279 280 281 283 284 284 285 286 286 286 286 286 286 285 285 284 283 282 282 281 281 281 280 279 279 279 278 278 278 278 277 276 275 274 273 272 270 267 265 264 263 263 263 262 260 259 258 258 257 256 254 247 239 235 237 241 244 247 249 251 255 262 270 276
271 273 275 277 279 280 282 282 282 282 281 280 280 279 278 278 278 278 279 280 281 282 283 283 285 286 287 288 287 287 286 286 286 286 286 286 286 286 285 284 283 282 282 281 281 281 280 279 278 277 277 276 274 273 272 272 271 270 267 265 263 262 261 262 261 260 258 256 253 250 245 238 234 236 240 242 241 240 243 246 251 258 266 271 273
269 272 275 278 280 282 283 283 283 282 281 279 279 278 277 275 274 275 277 280 282 283 284 285 286 287 288 289 289 289 289 289 289 289 290 290 290 289 289 288 288 287 286 285 285 284 283 282 281 280 278 275 273 269 267 266 266 266 265 263 261 258 257 259 259 255 249 241 234 230 230 231 234 240 245 243 240 240 242 247 254 262 267 269 269
268 273 277 281 284 287 287 287 286 284 281 279 277 276 275 274 273 274 276 278 281 284 287 288 289 289 290 291 291 292 292 293 294 295 296 297 298 297 297 296 295 294 292 291 289 288 288 287 287 284 282 278 274 268 262 259 258 258 258 257 256 252 250 254 254 244 232 223 218 216 217 222 230 237 241 240 241 245 248 252 257 262 264 264 266
272 277 280 284 287 290 292 293 292 290 286 281 277 274 273 274 275 277 279 280 282 283 285 287 289 290 292 294 295 295 297 300 303 306 308 308 307 306 305 303 301 298 297 297 298 299 299 298 297 293 288 283 277 268 258 252 250 250 247 246 247 244 241 245 249 243 234 230 229 229 228 228 231 236 241 243 246 249 252 253 256 257 258 260 264
276 278 281 286 291 295 299 302 304 302 296 288 281 277 276 276 276 277 279 280 282 283 284 286 289 292 297 302 305 306 306 308 311 313 315 315 314 311 308 304 302 300 301 303 306 308 307 306 303 299 295 291 282 269 255 245 244 244 240 237 238 238 236 236 239 240 241 244 248 252 253 249 243 242 245 247 248 248 249 249 249 250 253 256 260
282 284 289 295 298 303 310 313 312 308 301 293 288 284 280 277 277 278 281 283 286 288 290 293 295 298 301 305 307 308 309 309 310 312 314 316 317 316 313 310 308 307 307 308 311 313 312 308 304 300 298 296 287 271 254 240 236 239 237 231 228 230 233 233 232 235 241 247 250 252 252 251 249 249 249 248 247 246 245 243 242 244 249 251 251
288 291 297 300 302 309 319 320 313 305 302 299 296 290 284 282 284 289 294 298 302 303 303 302 302 301 302 303 306 308 309 309 308 307 308 310 313 314 313 314 314 313 314 314 316 318 316 311 304 300 299 295 287 272 256 241 236 237 234 225 218 221 229 232 233 236 241 244 247 248 249 250 251 250 249 247 244 242 240 239 239 242 244 244 240
290 295 299 300 305 317 325 321 310 301 301 302 299 293 291 294 299 306 312 315 316 313 309 306 305 304 305 307 310 312 313 312 309 307 305 305 307 307 308 312 315 316 316 316 318 321 321 316 309 304 299 292 280 267 256 248 243 240 232 219 211 217 226 230 233 236 237 240 243 245 247 248 248 247 245 243 241 239 238 239 240 241 240 237 232
293 296 297 300 309 321 325 318 307 299 299 301 298 296 297 302 308 314 318 318 316 313 309 308 307 307 309 312 315 317 317 314 310 309 309 308 307 306 306 309 313 315 314 313 314 318 321 320 315 307 299 288 274 262 256 252 245 236 224 211 208 215 221 224 228 232 233 236 239 242 243 245 244 242 239 235 233 234 237 239 240 239 235 229 223
297 297 297 301 311 319 320 314 305 297 296 296 295 296 301 307 312 316 317 314 312 310 308 309 310 312 315 317 320 322 321 316 313 313 313 311 308 307 308 311 313 313 311 308 307 307 313 325 331 321 304 289 275 256 247 243 233 220 211 206 208 213 217 220 224 227 228 231 235 238 241 241 238 233 229 228 227 229 231 231 233 234 230 221 215
298 298 297 301 311 316 315 311 303 294 293 294 295 297 301 307 311 314 313 311 309 308 308 311 314 316 318 321 323 324 323 318 315 315 315 312 309 307 309 311 312 310 307 305 305 304 308 333 355 354 335 304 276 240 226 221 212 205 204 206 210 214 218 221 223 224 225 228 231 233 234 233 228 221 219 221 220 221 222 223 225 225 220 214 213
296 296 295 300 309 312 310 307 300 291 290 293 296 299 303 308 311 311 309 307 306 307 310 312 314 317 321 324 326 326 323 320 318 317 317 316 313 309 307 308 307 307 309 311 313 315 319 346 15 27 42 69 97 146 178 188 192 196 202 207 211 213 215 217 219 221 222 224 224 223 221 219 213 208 208 212 213 216 218 218 218 217 214 212 213
293 292 293 298 305 308 308 307 300 292 291 294 298 301 305 308 310 309 308 307 307 309 312 312 313 317 323 326 328 327 325 323 320 317 316 316 314 308 304 303 304 307 315 322 326 334 356 28 42 48 61 79 98 122 146 166 180 189 194 199 203 208 212 215 218 219 218 215 212 210 208 205 198 192 195 204 209 212 213 214 215 217 216 213 212
288 288 289 293 300 305 307 306 300 296 298 303 307 311 313 315 315 315 312 309 309 311 312 311 313 319 326 329 330 331 330 328 325 322 321 322 320 312 305 304 309 318 329 343 10 40 53 60 65 68 75 87 106 132 156 176 187 194 199 205 210 214 217 219 218 214 207 200 197 197 194 188 181 181 191 202 207 208 210 214 216 218 217 214 210
283 280 277 282 293 301 304 304 308 314 318 322 327 329 329 329 330 331 327 317 313 313 311 311 315 323 329 331 332 333 333 333 333 333 336 340 339 332 324 325 358 29 26 36 57 70 74 74 74 78 84 89 92 103 147 205 219 221 223 224 225 224 223 221 215 206 196 187 182 179 173 169 173 183 192 200 206 209 213 215 215 216 218 216 209
276 268 261 268 283 295 298 308 328 336 335 335 339 340 342 344 348 350 345 335 327 321 317 317 322 327 331 333 333 334 337 340 340 343 352 1 8 9 12 29 69 78 75 74 79 86 89 82 70 65 67 63 48 31 8 320 284 252 236 231 227 226 223 216 206 196 183 169 160 158 159 166 177 186 191 197 204 210 213 213 211 212 213 214 213
262 251 245 253 270 278 279 303 334 336 334 336 342 349 355 0 2 360 356 353 349 340 331 329 332 334 334 333 331 333 339 344 345 349 4 20 29 33 37 46 67 88 93 89 85 87 88 76 55 44 42 32 18 5 346 324 304 279 255 239 226 218 211 202 191 179 165 152 147 152 159 168 177 183 188 194 202 207 208 207 206 206 207 214 230
248 237 233 237 247 254 261 299 326 327 327 335 347 360 7 10 10 6 3 1 0 355 345 339 341 343 342 338 334 330 332 341 350 4 20 30 36 42 49 50 54 70 90 96 92 88 81 62 43 30 20 12 7 357 334 305 281 267 255 238 221 206 195 185 174 161 152 147 149 154 162 170 178 183 186 191 198 202 203 202 204 209 219 235 258
235 228 225 226 231 240 258 300 318 319 323 334 352 6 13 16 17 16 12 6 1 360 358 354 352 352 350 344 333 305 271 237 107 77 54 40 34 36 46 55 57 62 75 88 93 85 57 29 14 356 344 346 346 336 320 298 273 255 236 216 200 188 178 170 162 153 149 149 153 157 163 173 184 191 193 191 190 192 197 201 207 226 263 285 294
Height
3118 3120 3123 3125 3128 3130 3132 3134 3136 3138 3139 3141 3142 3143 3144 3144 3145 3145 3145 3144 3144 3144 3143 3143 3143 3143 3143 3143 3143 3143 3143 3144 3144 3145 3145 3146 3146 3147 3147 3148 3149 3150 3151 3152 3153 3154 3155 3156 3158 3159 3160 3162 3163 3164 3165 3166 3167 3168 3168 3168 3169 3169 3170 3171 3171 3171 3172 3172 3172 3172 3172 3171 3171 3171 3171 3171 3171 3171 3171 3170 3170 3169 3169 3169 3169
3118 3120 3122 3124 3126 3129 3131 3133 3135 3137 3138 3139 3140 3141 3142 3143 3143 3143 3143 3143 3143 3143 3142 3142 3141 3141 3141 3142 3142 3142 3143 3143 3143 3144 3145 3145 3146 3146 3147 3147 3148 3149 3150 3151 3153 3154 3155 3156 3157 3158 3160 3161 3162 3164 3165 3166 3167 3168 3168 3168 3169 3169 3170 3171 3171 3171 3171 3172 3171 3171 3171 3170 3170 3170 3170 3170 3170 3170 3170 3169 3169 3168 3168 3168 3167
3117 3119 3121 3123 3125 3127 3130 3132 3134 3135 3137 3138 3139 3140 3140 3141 3141 3141 3142 3141 3141 3141 3141 3140 3140 3140 3140 3140 3141 3141 3142 3142 3143 3144 3144 3145 3146 3146 3147 3147 3148 3149 3150 3151 3152 3153 3155 3156 3157 3158 3160 3161 3162 3163 3165 3166 3167 3167 3168 3168 3169 3169 3170 3170 3171 3171 3171 3171 3171 3170 3170 3169 3169 3169 3169 3169 3169 3169 3168 3168 3168 3167 3167 3166 3166
3116 3118 3120 3121 3123 3125 3128 3130 3132 3134 3135 3137 3137 3138 3139 3140 3140 3140 3140 3140 3139 3139 3139 3139 3139 3139 3139 3139 3140 3140 3141 3142 3143 3143 3144 3145 3145 3146 3146 3147 3148 3149 3150 3151 3152 3153 3154 3155 3157 3158 3159 3161 3162 3163 3164 3165 3166 3167 3167 3167 3168 3168 3169 3169 3170 3170 3170 3170 3169 3169 3169 3169 3168 3168 3168 3168 3168 3167 3167 3167 3166 3166 3165 3165 3164
3115 3116 3118 3119 3121 3123 3125 3128 3130 3132 3134 3135 3136 3137 3138 3138 3139 3139 3139 3138 3138 3138 3138 3138 3138 3138 3138 3138 3139 3140 3141 3142 3142 3143 3144 3144 3145 3146 3146 3147 3148 3149 3150 3151 3152 3153 3154 3155 3156 3158 3159 3160 3162 3163 3164 3165 3165 3166 3166 3166 3167 3167 3168 3168 3169 3169 3169 3169 3168 3168 3168 3168 3167 3167 3167 3166 3166 3166 3166 3165 3165 3164 3164 3163 3163
3112 3114 3116 3118 3120 3121 3123 3125 3128 3130 3132 3133 3134 3135 3136 3137 3137 3137 3137 3137 3137 3136 3136 3136 3136 3137 3137 3138 3138 3139 3140 3141 3142 3142 3143 3144 3144 3145 3146 3147 3147 3149 3150 3151 3152 3153 3154 3155 3156 3157 3158 3160 3161 3162 3163 3163 3164 3164 3165 3165 3166 3166 3167 3167 3168 3168 3168 3168 3168 3167 3167 3167 3167 3166 3166 3165 3165 3164 3164 3163 3163 3162 3162 3161 3161
3110 3112 3114 3115 3117 3119 3121 3123 3125 3127 3129 3130 3131 3132 3133 3134 3134 3135 3135 3135 3135 3135 3134 3135 3135 3135 3136 3137 3138 3139 3139 3140 3141 3141 3142 3143 3143 3144 3145 3146 3147 3148 3149 3151 3152 3153 3154 3155 3156 3157 3158 3159 3159 3160 3161 3162 3162 3163 3163 3164 3164 3165 3165 3166 3166 3166 3166 3166 3166 3166 3166 3165 3165 3165 3164 3164 3164 3163 3162 3161 3161 3160 3160 3159 3159
3108 3110 3111 3112 3114 3116 3117 3118 3120 3123 3125 3126 3128 3129 3130 3132 3132 3133 3133 3133 3133 3133 3133 3134 3134 3134 3135 3137 3138 3139 3139 3140 3140 3141 3141 3142 3143 3143 3144 3145 3146 3148 3149 3150 3152 3153 3154 3154 3155 3156 3157 3158 3158 3159 3160 3160 3161 3161 3162 3162 3163 3163 3163 3164 3164 3164 3164 3164 3164 3164 3164 3163 3163 3162 3162 3162 3161 3161 3160 3159 3158 3158 3157 3157 3156
3104 3105 3106 3107 3109 3111 3112 3114 3117 3119 3121 3123 3125 3127 3128 3129 3130 3131 3132 3132 3132 3133 3133 3133 3133 3134 3135 3136 3137 3138 3139 3139 3140 3140 3141 3141 3142 3143 3143 3144 3145 3147 3148 3150 3151 3152 3153 3153 3154 3155 3155 3156 3157 3157 3158 3159 3159 3160 3160 3161 3161 3161 3162 3162 3162 3162 3162 3162 3162 3162 3162 3161 3161 3160 3160 3159 3159 3158 3157 3156 3155 3154 3154 3154 3153
3098 3099 3101 3103 3106 3108 3109 3111 3114 3116 3118 3121 3123 3124 3126 3127 3128 3129 3130 3130 3131 3132 3132 3133 3133 3134 3135 3135 3136 3137 3138 3138 3139 3140 3140 3141 3141 3142 3143 3144 3145 3146 3147 3148 3149 3150 3151 3152 3152 3153 3154 3154 3155 3156 3156 3157 3157 3158 3158 3158 3159 3159 3159 3159 3160 3160 3160 3160 3160 3160 3159 3159 3159 3158 3157 3157 3156 3156 3155 3153 3152 3151 3150 3150 3150
3096 3098 3100 3101 3104 3105 3105 3106 3109 3112 3116 3119 3121 3122 3123 3124 3126 3127 3128 3129 3130 3131 3132 3132 3132 3133 3133 3134 3135 3136 3136 3137 3138 3139 3139 3140 3140 3141 3142 3143 3143 3144 3145 3147 3148 3149 3150 3150 3151 3152 3152 3153 3153 3154 3154 3154 3155 3155 3155 3156 3156 3156 3157 3157 3157 3157 3157 3157 3157 3157 3157 3157 3156 3155 3155 3154 3154 3153 3152 3151 3150 3149 3148 3147 3147
3095 3098 3099 3100 3101 3102 3103 3104 3106 3109 3113 3117 3118 3120 3121 3123 3124 3126 3127 3128 3130 3130 3131 3131 3131 3132 3132 3133 3133 3134 3135 3135 3136 3137 3138 3139 3139 3140 3141 3142 3142 3143 3144 3145 3146 3147 3148 3148 3149 3150 3150 3151 3151 3151 3151 3152 3152 3152 3153 3153 3153 3154 3154 3154 3155 3155 3155 3154 3154 3154 3154 3154 3153 3153 3152 3151 3150 3150 3149 3149 3148 3147 3146 3145 3144
3095 3096 3097 3098 3100 3101 3103 3104 3106 3109 3112 3114 3116 3118 3119 3121 3123 3124 3126 3127 3128 3129 3130 3130 3130 3131 3131 3132 3132 3132 3133 3134 3134 3135 3136 3137 3138 3139 3140 3141 3141 3142 3143 3144 3144 3145 3146 3146 3147 3147 3148 3148 3148 3148 3149 3149 3149 3149 3150 3150 3150 3150 3150 3151 3151 3151 3151 3151 3150 3151 3151 3150 3149 3149 3149 3148 3147 3147 3146 3145 3145 3144 3143 3142 3141
3094 3094 3095 3097 3098 3100 3103 3104 3105 3107 3109 3111 3113 3115 3117 3119 3120 3122 3123 3125 3126 3127 3128 3129 3129 3130 3130 3130 3131 3131 3132 3132 3133 3134 3135 3136 3137 3138 3138 3139 3140 3141 3141 3142 3143 3143 3143 3144 3144 3144 3145 3145 3145 3146 3146 3147 3147 3146 3146 3146 3146 3147 3147 3147 3147 3147 3147 3146 3146 3147 3147 3146 3146 3146 3145 3145 3144 3144 3143 3142 3141 3140 3139 3138 3137
3093 3094 3095 3097 3098 3100 3102 3103 3105 3106 3107 3108 3110 3112 3114 3116 3117 3119 3120 3122 3123 3124 3125 3127 3127 3128 3129 3129 3129 3130 3130 3131 3132 3133 3134 3134 3135 3136 3137 3138 3138 3139 3139 3140 3140 3140 3140 3140 3141 3141 3142 3142 3142 3143 3143 3143 3143 3142 3142 3143 3143 3143 3143 3143 3143 3143 3143 3143 3143 3143 3143 3142 3142 3142 3141 3141 3141 3140 3140 3139 3138 3137 3136 3135 3134
3093 3094 3096 3097 3099 3099 3100 3103 3104 3104 3105 3107 3108 3109 3112 3113 3114 3116 3117 3119 3121 3122 3123 3124 3125 3126 3126 3127 3127 3128 3128 3129 3130 3131 3132 3132 3133 3134 3135 3135 3136 3136 3137 3137 3138 3138 3137 3137 3137 3137 3138 3138 3139 3139 3139 3138 3138 3138 3138 3138 3139 3139 3139 3139 3139 3139 3139 3139 3139 3139 3139 3138 3138 3137 3137 3137 3136 3136 3136 3135 3134 3133 3133 3131 3130
3094 3095 3095 3097 3099 3099 3100 3102 3103 3102 3104 3106 3108 3109 3111 3112 3112 3114 3115 3117 3118 3119 3120 3121 3122 3123 3124 3124 3125 3125 3126 3127 3128 3128 3129 3130 3130 3131 3132 3132 3133 3133 3134 3134 3134 3134 3134 3134 3134 3134 3134 3135 3135 3135 3134 3133 3133 3133 3133 3133 3134 3134 3135 3134 3134 3134 3135 3135 3134 3134 3134 3133 3133 3132 3132 3131 3131 3131 3131 3131 3130 3129 3127 3126 3125
3093 3095 3095 3097 3099 3099 3100 3102 3102 3102 3105 3107 3108 3109 3111 3111 3111 3113 3114 3115 3116 3116 3117 3118 3119 3120 3121 3121 3122 3122 3123 3124 3124 3125 3126 3127 3127 3128 3128 3129 3129 3130 3130 3131 3130 3130 3131 3131 3131 3131 3131 3132 3132 3131 3130 3129 3128 3128 3128 3129 3129 3129 3130 3130 3129 3129 3129 3129 3130 3129 3128 3128 3128 3128 3127 3127 3126 3126 3126 3125 3125 3123 3122 3121 3121
3092 3094 3095 3096 3097 3098 3099 3100 3101 3102 3104 3106 3107 3108 3109 3109 3109 3111 3112 3112 3113 3113 3114 3115 3116 3117 3117 3118 3119 3119 3120 3120 3121 3122 3123 3123 3124 3124 3125 3125 3125 3125 3126 3126 3127 3127 3127 3127 3128 3128 3128 3129 3129 3128 3127 3126 3125 3124 3125 3125 3124 3125 3126 3126 3125 3124 3124 3124 3124 3124 3123 3123 3123 3123 3123 3123 3122 3122 3121 3120 3119 3118 3117 3116 3116
3092 3093 3094 3095 3096 3097 3098 3099 3100 3101 3103 3104 3105 3105 3106 3105 3106 3107 3108 3108 3109 3110 3110 3111 3112 3113 3114 3115 3116 3117 3117 3117 3117 3118 3118 3119 3120 3120 3121 3121 3121 3121 3121 3122 3122 3123 3123 3123 3124 3124 3124 3124 3124 3124 3123 3122 3122 3121 3121 3121 3121 3121 3123 3122 3120 3120 3119 3119 3119 3118 3118 3118 3118 3118 3119 3119 3118 3118 3117 3115 3114 3114 3113 3112 3112
3091 3092 3093 3094 3095 3096 3097 3098 3099 3100 3101 3102 3102 3103 3104 3104 3105 3105 3105 3105 3106 3106 3107 3108 3108 3109 3110 3111 3112 3113 3114 3114 3114 3114 3114 3115 3115 3116 3116 3116 3116 3116 3116 3117 3117 3118 3118 3119 3119 3119 3118 3118 3118 3118 3117 3117 3117 3116 3116 3117 3117 3117 3117 3117 3116 3116 3115 3115 3114 3114 3113 3114 3114 3114 3114 3114 3113 3113 3112 3111 3110 3109 3109 3108 3108
3090 3091 3093 3094 3095 3095 3096 3097 3097 3098 3099 3099 3100 3100 3101 3102 3103 3104 3104 3104 3104 3105 3105 3105 3106 3106 3107 3107 3108 3109 3110 3110 3110 3110 3110 3110 3110 3110 3110 3110 3110 3110 3111 3112 3112 3112 3113 3113 3113 3114 3113 3112 3112 3112 3111 3111 3111 3109 3109 3111 3112 3112 3112 3112 3111 3111 3110 3110 3110 3109 3109 3109 3109 3109 3109 3109 3109 3108 3107 3106 3106 3105 3104 3104 3104
3089 3090 3091 3092 3093 3094 3095 3095 3096 3096 3096 3097 3097 3098 3098 3099 3100 3101 3101 3102 3102 3102 3103 3103 3104 3104 3105 3105 3105 3106 3106 3106 3106 3106 3106 3106 3106 3105 3105 3105 3105 3105 3105 3105 3106 3106 3107 3107 3107 3108 3107 3107 3107 3106 3106 3105 3105 3104 3104 3104 3105 3105 3105 3105 3105 3104 3104 3105 3105 3104 3104 3105 3104 3104 3104 3104 3104 3103 3102 3101 3101 3100 3100 3100 3100
3087 3088 3088 3089 3090 3091 3092 3092 3093 3093 3094 3094 3094 3095 3095 3096 3096 3097 3097 3098 3098 3099 3099 3100 3101 3101 3101 3102 3102 3102 3102 3102 3101 3101 3101 3101 3100 3100 3100 3099 3099 3099 3098 3098 3099 3099 3099 3100 3100 3101 3101 3101 3101 3101 3100 3099 3099 3099 3098 3098 3098 3098 3097 3098 3098 3098 3098 3098 3099 3099 3100 3100 3099 3099 3099 3099 3098 3097 3097 3096 3095 3095 3095 3095 3096
3085 3086 3086 3087 3087 3088 3088 3089 3089 3089 3090 3090 3090 3091 3091 3091 3092 3092 3093 3093 3093 3094 3094 3095 3096 3096 3096 3096 3096 3096 3096 3095 3095 3095 3094 3094 3094 3094 3094 3093 3092 3092 3091 3091 3090 3090 3090 3090 3091 3092 3092 3093 3093 3093 3093 3092 3092 3091 3091 3091 3091 3091 3091 3091 3092 3092 3092 3093 3093 3094 3094 3094 3094 3093 3093 3092 3092 3091 3091 3090 3090 3091 3091 3091 3092
3083 3084 3084 3085 3085 3086 3086 3086 3086 3086 3086 3086 3086 3087 3087 3087 3088 3088 3088 3088 3089 3089 3089 3089 3090 3090 3090 3090 3090 3090 3090 3089 3089 3088 3088 3088 3088 3087 3087 3086 3086 3085 3084 3084 3083 3082 3082 3082 3082 3082 3083 3084 3084 3084 3085 3085 3084 3083 3083 3083 3083 3083 3084 3084 3085 3085 3086 3087 3087 3088 3088 3088 3088 3087 3086 3086 3086 3086 3085 3085 3086 3086 3087 3087 3087
3080 3081 3082 3082 3082 3083 3083 3083 3083 3083 3083 3083 3083 3083 3083 3083 3083 3083 3083 3084 3084 3084 3084 3084 3084 3084 3084 3083 3083 3083 3083 3083 3083 3082 3081 3080 3080 3079 3079 3078 3078 3077 3076 3076 3075 3075 3074 3074 3074 3073 3073 3074 3074 3075 3075 3076 3076 3075 3075 3075 3075 3076 3076 3077 3077 3078 3079 3080 3080 3081 3081 3081 3081 3079 3079 3079 3080 3080 3081 3081 3082 3082 3083 3083 3083
3078 3078 3078 3078 3078 3079 3079 3079 3079 3079 3079 3079 3079 3079 3079 3079 3079 3079 3079 3079 3078 3078 3078 3078 3078 3078 3077 3077 3077 3077 3076 3076 3075 3074 3073 3073 3072 3071 3071 3070 3070 3069 3068 3068 3067 3067 3067 3067 3066 3066 3065 3065 3065 3065 3066 3066 3067 3067 3067 3067 3067 3068 3068 3069 3070 3071 3072 3073 3074 3074 3075 3075 3074 3073 3073 3073 3074 3075 3076 3077 3078 3078 3078 3078 3079
3074 3074 3074 3075 3075 3075 3075 3075 3075 3075 3075 3075 3075 3075 3075 3075 3074 3074 3074 3074 3073 3073 3073 3072 3072 3072 3071 3071 3070 3070 3070 3069 3068 3067 3067 3066 3065 3064 3064 3063 3062 3062 3061 3060 3059 3059 3059 3059 3059 3058 3058 3058 3057 3057 3057 3058 3058 3058 3059 3059 3060 3060 3061 3062 3062 3063 3065 3066 3067 3068 3068 3068 3069 3069 3068 3068 3068 3070 3072 3073 3073 3074 3074 3074 3075
3071 3071 3071 3071 3071 3071 3071 3071 3071 3071 3071 3071 3071 3070 3070 3070 3070 3070 3069 3069 3069 3068 3068 3067 3067 3066 3066 3065 3065 3064 3063 3062 3062 3061 3061 3060 3059 3058 3058 3057 3056 3056 3055 3054 3053 3053 3052 3052 3051 3051 3051 3051 3050 3050 3050 3050 3051 3051 3052 3052 3053 3053 3054 3055 3056 3057 3058 3059 3060 3061 3062 3062 3063 3063 3063 3063 3064 3066 3067 3068 3069 3069 3070 3070 3071
3069 3069 3069 3069 3068 3068 3068 3068 3067 3067 3067 3067 3067 3066 3066 3065 3065 3065 3065 3064 3064 3063 3063 3062 3062 3061 3061 3060 3060 3059 3058 3056 3056 3055 3055 3054 3054 3053 3052 3051 3050 3050 3049 3048 3048 3047 3046 3046 3045 3045 3044 3044 3044 3044 3043 3044 3044 3044 3045 3046 3046 3047 3048 3049 3050 3051 3052 3053 3054 3055 3056 3057 3057 3057 3058 3059 3060 3061 3062 3063 3064 3065 3066 3066 3067
3067 3067 3067 3067 3066 3066 3065 3065 3064 3064 3063 3063 3063 3063 3062 3061 3060 3060 3059 3059 3059 3059 3059 3058 3058 3057 3057 3056 3056 3055 3054 3053 3051 3050 3050 3049 3049 3048 3047 3046 3045 3044 3043 3043 3042 3042 3041 3040 3040 3039 3038 3038 3037 3037 3037 3037 3038 3038 3039 3040 3040 3041 3042 3043 3044 3045 3046 3047 3049 3050 3051 3051 3052 3052 3054 3055 3056 3057 3058 3059 3060 3061 3062 3062 3063
3066 3066 3065 3065 3064 3064 3063 3063 3062 3061 3061 3060 3060 3059 3059 3059 3058 3057 3056 3055 3056 3056 3056 3055 3055 3054 3054 3053 3052 3051 3050 3049 3048 3047 3046 3045 3044 3043 3042 3041 3040 3039 3038 3037 3036 3035 3035 3034 3033 3033 3032 3031 3031 3031 3031 3032 3032 3032 3033 3034 3035 3036 3037 3038 3039 3039 3040 3041 3043 3044 3045 3046 3047 3048 3050 3051 3051 3052 3053 3055 3056 3057 3058 3059 3060
3064 3064 3064 3064 3063 3062 3061 3061 3060 3059 3058 3058 3057 3057 3056 3056 3056 3056 3055 3054 3053 3053 3053 3053 3052 3052 3051 3050 3049 3048 3047 3045 3044 3043 3042 3041 3040 3039 3037 3036 3035 3033 3032 3031 3031 3030 3029 3028 3027 3026 3025 3025 3025 3025 3025 3026 3026 3027 3028 3029 3030 3031 3032 3033 3034 3034 3035 3036 3037 3038 3039 3041 3043 3045 3046 3046 3048 3049 3050 3051 3053 3054 3055 3055 3056
3063 3062 3062 3062 3061 3060 3059 3058 3057 3056 3056 3055 3054 3054 3053 3053 3053 3053 3053 3053 3052 3051 3050 3050 3049 3049 3048 3047 3046 3045 3043 3042 3041 3040 3039 3037 3036 3035 3033 3032 3031 3029 3028 3027 3026 3025 3024 3023 3022 3021 3020 3019 3019 3018 3019 3020 3021 3021 3023 3024 3025 3026 3028 3029 3029 3030 3031 3032 3032 3033 3033 3035 3037 3040 3042 3043 3045 3046 3047 3048 3050 3051 3052 3052 3053
3061 3060 3060 3059 3059 3058 3057 3056 3055 3054 3053 3052 3052 3051 3051 3051 3050 3050 3050 3050 3050 3049 3048 3047 3046 3046 3045 3044 3043 3042 3041 3040 3038 3037 3035 3034 3033 3031 3030 3029 3027 3026 3024 3023 3022 3021 3020 3019 3018 3016 3015 3014 3013 3013 3014 3015 3016 3017 3018 3020 3021 3023 3024 3025 3027 3028 3029 3030 3031 3032 3032 3033 3034 3036 3038 3040 3042 3043 3044 3045 3046 3047 3048 3049 3050
3058 3058 3058 3057 3057 3056 3055 3053 3052 3051 3051 3050 3049 3049 3048 3048 3048 3048 3047 3047 3047 3047 3046 3045 3044 3043 3042 3041 3040 3039 3038 3037 3035 3034 3033 3031 3029 3028 3027 3025 3024 3023 3021 3020 3019 3017 3016 3014 3013 3012 3011 3010 3009 3009 3009 3011 3012 3013 3014 3016 3018 3019 3021 3022 3024 3026 3027 3028 3030 3031 3031 3032 3033 3034 3036 3038 3039 3040 3041 3042 3043 3044 3045 3046 3048
3056 3056 3055 3055 3054 3053 3052 3051 3050 3049 3049 3048 3047 3047 3046 3046 3045 3045 3045 3045 3045 3044 3043 3043 3042 3041 3040 3039 3038 3037 3035 3034 3033 3031 3030 3029 3027 3025 3023 3022 3021 3020 3018 3017 3016 3014 3013 3011 3010 3008 3007 3006 3005 3005 3006 3007 3009 3010 3011 3012 3014 3016 3018 3019 3021 3023 3025 3026 3028 3029 3029 3030 3031 3033 3034 3035 3036 3037 3038 3039 3040 3041 3042 3044 3045
3054 3053 3053 3052 3052 3051 3050 3049 3048 3047 3047 3046 3045 3045 3044 3044 3043 3043 3043 3043 3042 3042 3041 3040 3040 3039 3038 3037 3036 3034 3033 3032 3030 3029 3028 3027 3025 3023 3021 3020 3019 3017 3016 3014 3013 3011 3010 3008 3006 3005 3004 3003 3003 3003 3003 3005 3006 3007 3007 3009 3011 3013 3015 3017 3019 3021 3023 3024 3025 3026 3027 3028 3029 3031 3032 3033 3033 3034 3035 3036 3037 3039 3040 3041 3042
3052 3051 3051 3050 3050 3049 3048 3047 3046 3046 3045 3044 3044 3043 3042 3042 3042 3041 3041 3041 3040 3039 3039 3038 3037 3037 3036 3035 3034 3033 3031 3030 3028 3027 3026 3025 3023 3022 3020 3019 3017 3016 3014 3013 3011 3009 3007 3005 3003 3002 3001 3000 3000 3001 3001 3002 3003 3004 3006 3007 3009 3012 3014 3016 3018 3019 3021 3022 3023 3024 3025 3027 3028 3029 3029 3030 3031 3032 3033 3035 3036 3038 3038 3039 3039
3050 3049 3049 3048 3048 3047 3046 3046 3045 3044 3043 3042 3042 3041 3041 3040 3040 3040 3039 3039 3038 3037 3037 3036 3035 3035 3034 3033 3032 3031 3029 3028 3026 3025 3024 3023 3022 3020 3019 3017 3016 3014 3013 3011 3010 3008 3006 3004 3002 2999 2998 2998 2998 2999 3000 3001 3002 3004 3005 3006 3008 3011 3012 3014 3016 3017 3018 3020 3021 3022 3023 3025 3026 3026 3027 3028 3029 3031 3032 3034 3035 3036 3036 3036 3037
3048 3048 3047 3046 3046 3045 3045 3044 3043 3042 3042 3041 3040 3040 3039 3039 3039 3038 3038 3037 3036 3036 3035 3034 3033 3033 3032 3031 3030 3028 3027 3026 3024 3023 3022 3021 3020 3019 3017 3016 3015 3013 3011 3010 3009 3007 3006 3004 3001 2998 2996 2996 2996 2997 2999 3000 3002 3003 3004 3006 3008 3010 3011 3013 3014 3015 3017 3018 3019 3020 3021 3022 3023 3024 3025 3026 3028 3030 3031 3033 3034 3034 3034 3035 3035
3046 3046 3045 3045 3044 3044 3043 3043 3042 3041 3040 3039 3039 3038 3038 3038 3037 3037 3036 3036 3035 3034 3033 3032 3032 3031 3030 3029 3028 3027 3025 3024 3023 3022 3021 3020 3018 3017 3016 3014 3013 3012 3010 3009 3008 3006 3005 3004 3001 2998 2996 2996 2996 2997 2999 3000 3002 3003 3005 3007 3009 3010 3011 3012 3013 3014 3015 3016 3017 3018 3019 3020 3021 3022 3023 3026 3028 3029 3030 3031 3032 3032 3033 3033 3034
3044 3044 3044 3043 3043 3042 3042 3041 3040 3040 3039 3038 3038 3037 3036 3036 3036 3035 3034 3034 3033 3032 3031 3031 3030 3029 3028 3027 3026 3025 3024 3023 3022 3021 3019 3018 3017 3015 3014 3013 3012 3011 3010 3009 3007 3006 3004 3003 3002 3000 2998 2997 2998 2999 3000 3002 3003 3005 3007 3008 3009 3009 3010 3011 3012 3013 3014 3015 3015 3016 3017 3019 3020 3021 3023 3025 3027 3028 3029 3030 3030 3031 3031 3032 3032
3043 3042 3042 3042 3041 3041 3040 3040 3039 3038 3038 3037 3036 3036 3035 3034 3034 3033 3033 3032 3031 3030 3030 3029 3028 3027 3026 3025 3025 3024 3023 3022 3021 3019 3018 3017 3015 3014 3012 3012 3011 3010 3009 3008 3007 3006 3005 3003 3002 3001 3001 3000 3000 3002 3003 3004 3005 3006 3007 3007 3008 3008 3009 3010 3011 3012 3013 3013 3014 3016 3017 3018 3019 3021 3023 3025 3026 3027 3028 3028 3029 3029 3030 3030 3030
3041 3041 3040 3040 3040 3040 3039 3038 3038 3037 3037 3036 3035 3034 3033 3033 3032 3031 3031 3030 3029 3028 3028 3027 3026 3026 3025 3024 3023 3023 3022 3021 3020 3018 3017 3015 3014 3012 3011 3011 3010 3010 3009 3008 3007 3006 3006 3005 3004 3004 3004 3004 3004 3005 3006 3007 3007 3008 3008 3008 3008 3009 3010 3010 3011 3011 3012 3013 3014 3015 3017 3018 3019 3021 3022 3023 3025 3025 3026 3027 3027 3028 3028 3028 3028
3039 3039 3039 3039 3039 3038 3038 3037 3037 3036 3036 3035 3034 3033 3032 3031 3030 3030 3029 3029 3028 3027 3026 3026 3025 3025 3024 3023 3022 3022 3021 3020 3018 3017 3016 3015 3013 3012 3011 3011 3011 3010 3009 3009 3009 3008 3008 3008 3008 3007 3007 3007 3008 3008 3009 3009 3009 3009 3009 3009 3009 3010 3010 3010 3011 3011 3012 3013 3014 3015 3016 3018 3019 3020 3021 3023 3024 3024 3025 3026 3026 3027 3027 3027 3027
3037 3037 3038 3038 3038 3037 3037 3036 3036 3036 3035 3034 3033 3032 3031 3030 3029 3029 3028 3027 3027 3026 3025 3025 3024 3024 3023 3022 3021 3020 3020 3019 3018 3017 3016 3015 3014 3013 3012 3011 3011 3011 3010 3010 3010 3010 3010 3010 3010 3010 3010 3010 3010 3010 3010 3010 3010 3009 3009 3010 3010 3010 3010 3011 3011 3012 3012 3013 3014 3015 3017 3018 3019 3020 3021 3022 3023 3024 3024 3025 3025 3026 3026 3026 3026
3036 3036 3036 3037 3036 3036 3036 3035 3035 3035 3035 3034 3033 3032 3031 3030 3029 3028 3027 3027 3026 3026 3025 3025 3024 3023 3022 3021 3021 3020 3019 3019 3018 3017 3017 3016 3016 3015 3014 3013 3013 3012 3012 3012 3012 3012 3012 3012 3012 3011 3011 3011 3010 3010 3010 3010 3010 3009 3009 3010 3010 3010 3010 3011 3011 3012 3013 3014 3015 3016 3017 3018 3019 3020 3021 3022 3022 3023 3023 3023 3024 3024 3025 3025 3025
3034 3035 3035 3035 3035 3035 3035 3035 3034 3034 3034 3033 3032 3031 3030 3029 3029 3028 3027 3027 3026 3026 3025 3025 3024 3023 3022 3021 3020 3020 3020 3019 3019 3018 3018 3017 3017 3016 3016 3015 3014 3014 3013 3013 3013 3013 3013 3013 3012 3012 3012 3011 3011 3011 3010 3010 3010 3010 3010 3010 3010 3010 3011 3011 3012 3013 3013 3014 3015 3016 3017 3018 3018 3019 3020 3020 3021 3021 3022 3022 3023 3023 3023 3023 3024
3033 3033 3034 3034 3034 3034 3034 3034 3034 3034 3033 3033 3032 3031 3030 3029 3029 3028 3027 3027 3026 3026 3025 3025 3024 3023 3022 3022 3021 3021 3020 3020 3020 3019 3019 3018 3018 3017 3017 3016 3016 3015 3015 3014 3014 3014 3014 3013 3013 3013 3012 3012 3011 3011 3011 3010 3010 3010 3010 3010 3010 3011 3011 3012 3013 3013 3014 3015 3016 3016 3017 3018 3018 3019 3019 3019 3020 3021 3021 3022 3022 3022 3022 3022 3022